Burnsville, North Carolina, United States (28714)
Lat: 35.92N, Lon: 82.3W
Wx Zone: NCZ049
Local Info
Past Weather Observations for Tuesday, February 2, 2016

NOTE: This archive is for the closest National Weather Service station to Burnsville. Information may differ from the station used for current weather conditions.

Click here for Long-term Archive

Time Weather Temperature Dewpoint Humidity Pressure Winds Precip Visibility
23:54
Overcast
46°F / 8°C 45°F / 7°C 93% 30.06 in
(1018 mb)
S 8.1 mph
(S 13 kph)
0.00 in
(0.00 mm)
10SM
22:54
Overcast
Light Rain
48°F / 9°C 45°F / 7°C 87% 30.09 in
(1019 mb)
SSE 11.5 mph
(SSE 19 kph)
0.10 in
(2.54 mm)
9SM
22:29
Overcast
Light Rain
46°F / 8°C 45°F / 7°C 93% 30.09 in
(1019 mb)
SW 11.5 mph
(SW 19 kph)
0.09 in
(2.29 mm)
6SM
22:01
Overcast
Rain
46°F / 8°C 45°F / 7°C 93% 30.12 in
(1020 mb)
SW 11.5 mph
(SW 19 kph)
0.01 in
(0.25 mm)
5SM
21:54
Overcast
Light Rain
46°F / 8°C 45°F / 7°C 93% 30.12 in
(1020 mb)
SSE 10.4 mph
(SSE 17 kph)
0.06 in
(1.52 mm)
2SM
21:36
Overcast
Light Rain
46°F / 8°C 45°F / 7°C 93% 30.12 in
(1020 mb)
SSE 8.1 mph
(SSE 13 kph)
0.04 in
(1.02 mm)
2SM
20:54
Overcast
Light Rain
48°F / 9°C 45°F / 7°C 87% 30.12 in
(1020 mb)
S 10.4 mph
(S 17 kph)
0.05 in
(1.27 mm)
2SM
20:44
Overcast
Rain
46°F / 8°C 45°F / 7°C 93% 30.15 in
(1021 mb)
SSE 10.4 mph
(SSE 17 kph)
0.04 in
(1.02 mm)
2SM
19:54
Overcast
Rain
48°F / 9°C 45°F / 7°C 87% 30.15 in
(1021 mb)
SE 5.8 mph
(SE 9 kph)
0.02 in
(0.51 mm)
2SM
19:25
Overcast
Fog And Mist
48°F / 9°C 46°F / 8°C 94% 30.15 in
(1021 mb)
S 5.8 mph
(S 9 kph)
- 2SM
18:54
Overcast
Fog And Mist
48°F / 9°C 46°F / 8°C 94% 30.15 in
(1021 mb)
S 5.8 mph
(S 9 kph)
- 2SM
18:40
Overcast
Fog And Mist
48°F / 9°C 46°F / 8°C 94% 30.15 in
(1021 mb)
S 6.9 mph
(S 11 kph)
- 2SM
17:54
Overcast
Fog And Mist
48°F / 9°C 46°F / 8°C 94% 30.15 in
(1021 mb)
S 10.4 mph
(S 17 kph)
- 2SM
17:39
Overcast
Fog And Mist
48°F / 9°C 46°F / 8°C 94% 30.12 in
(1020 mb)
S 8.1 mph
(S 13 kph)
- 2 1/2SM
17:17
Overcast
Fog And Mist
48°F / 9°C 46°F / 8°C 94% 30.12 in
(1020 mb)
SSE 5.8 mph
(SSE 9 kph)
- 3SM
17:05
Overcast
Fog And Mist
50°F / 10°C 48°F / 9°C 94% 30.15 in
(1021 mb)
S 8.1 mph
(S 13 kph)
- 2SM
16:54
Overcast
Fog And Mist
50°F / 10°C 46°F / 8°C 88% 30.12 in
(1020 mb)
SE 5.8 mph
(SE 9 kph)
- 2SM
15:54
Overcast
Fog And Mist
52°F / 11°C 48°F / 9°C 88% 30.12 in
(1020 mb)
S 12.7 mph
(S 20 kph)
- 2SM
15:47
Overcast
Fog And Mist
52°F / 11°C 48°F / 9°C 88% 30.12 in
(1020 mb)
S 11.5 mph
(S 19 kph)
- 2SM
14:54
Overcast
Fog And Mist
52°F / 11°C 48°F / 9°C 88% 30.12 in
(1020 mb)
SE 6.9 mph
(SE 11 kph)
- 2SM
13:54
Overcast
Fog And Mist
52°F / 11°C 50°F / 10°C 94% 30.15 in
(1021 mb)
SSE 9.2 mph
(SSE 15 kph)
0.00 in
(0.00 mm)
2SM
12:54
Overcast
Light Rain
52°F / 11°C 50°F / 10°C 94% 30.18 in
(1022 mb)
SSE 10.4 mph
(SSE 17 kph)
0.00 in
(0.00 mm)
3SM
11:54
Overcast
Fog And Mist
52°F / 11°C 50°F / 10°C 94% 30.18 in
(1022 mb)
SSE 8.1 mph
(SSE 13 kph)
0.00 in
(0.00 mm)
4SM
11:43
Overcast
Fog And Mist
52°F / 11°C 50°F / 10°C 94% 30.21 in
(1023 mb)
SSE 9.2 mph
(SSE 15 kph)
0.00 in
(0.00 mm)
5SM
11:17
Overcast
Fog And Mist
52°F / 11°C 50°F / 10°C 94% 30.18 in
(1022 mb)
Calm 0.00 in
(0.00 mm)
1SM
10:54
Overcast
52°F / 11°C 48°F / 9°C 88% 30.18 in
(1022 mb)
SW 4.6 mph
(SW 7 kph)
- 1SM
10:49
Overcast
52°F / 11°C 50°F / 10°C 94% 30.18 in
(1022 mb)
SW 4.6 mph
(SW 7 kph)
- 1SM
10:13
Overcast
50°F / 10°C 48°F / 9°C 94% 30.21 in
(1023 mb)
Calm - 1SM
09:54
Overcast
Fog And Mist
50°F / 10°C 48°F / 9°C 94% 30.18 in
(1022 mb)
Calm - 1SM
09:50
Overcast
Fog And Mist
50°F / 10°C 48°F / 9°C 94% 30.18 in
(1022 mb)
Calm - 2SM
09:47
Overcast
Fog And Mist
50°F / 10°C 48°F / 9°C 94% 30.18 in
(1022 mb)
SSE 3.5 mph
(SSE 6 kph)
- 1SM
09:25
Obscured
Fog
50°F / 10°C 48°F / 9°C 94% 30.18 in
(1022 mb)
Calm - 1/4SM
09:12
Obscured
Fog
50°F / 10°C 48°F / 9°C 94% 30.18 in
(1022 mb)
Calm - 1/2SM
09:03
Overcast
Fog And Mist
48°F / 9°C 48°F / 9°C 100% 30.18 in
(1022 mb)
S 3.5 mph
(S 6 kph)
- 1 1/4SM
08:58
Overcast
Fog And Mist
48°F / 9°C 48°F / 9°C 100% 30.18 in
(1022 mb)
S 3.5 mph
(S 6 kph)
- 2SM
08:54
Overcast
Fog And Mist
48°F / 9°C 48°F / 9°C 100% 30.18 in
(1022 mb)
SSE 3.5 mph
(SSE 6 kph)
- 1SM
08:10
Obscured
Fog
48°F / 9°C 48°F / 9°C 100% 30.15 in
(1021 mb)
Calm - 1/2SM
07:54
Obscured
Fog
48°F / 9°C 48°F / 9°C 100% 30.15 in
(1021 mb)
SW 4.6 mph
(SW 7 kph)
- 1/4SM
07:47
Obscured
Fog
48°F / 9°C 48°F / 9°C 100% 30.15 in
(1021 mb)
Calm - 1/4SM
06:54
Obscured
Fog
48°F / 9°C 48°F / 9°C 100% 30.15 in
(1021 mb)
Calm - 1/2SM
05:54
Obscured
Fog And Mist
50°F / 10°C 48°F / 9°C 94% 30.12 in
(1020 mb)
Calm - 3/4SM
04:54
Obscured
Fog And Mist
50°F / 10°C 48°F / 9°C 94% 30.09 in
(1019 mb)
Calm - 3/4SM
04:36
Obscured
Fog And Mist
50°F / 10°C 48°F / 9°C 94% 30.09 in
(1019 mb)
NNW 4.6 mph
(NNW 7 kph)
- 3/4SM
03:54
Overcast
Fog And Mist
52°F / 11°C 48°F / 9°C 88% 30.09 in
(1019 mb)
Calm - 1 1/4SM
03:36
Overcast
Fog And Mist
52°F / 11°C 48°F / 9°C 88% 30.09 in
(1019 mb)
Calm - 1 3/4SM
03:21
Overcast
Fog And Mist
52°F / 11°C 48°F / 9°C 88% 30.06 in
(1018 mb)
Calm - 3SM
03:04
Overcast
Fog And Mist
52°F / 11°C 48°F / 9°C 88% 30.06 in
(1018 mb)
Calm - 3SM
02:59
Overcast
Fog And Mist
52°F / 11°C 48°F / 9°C 88% 30.06 in
(1018 mb)
Calm - 1 1/2SM
02:54
Obscured
Fog And Mist
50°F / 10°C 48°F / 9°C 94% 30.06 in
(1018 mb)
Calm - 3/4SM
02:52
Obscured
Fog
50°F / 10°C 48°F / 9°C 94% 30.06 in
(1018 mb)
Calm - 1/2SM
02:45
Obscured
Fog
50°F / 10°C 48°F / 9°C 94% 30.06 in
(1018 mb)
Calm - 1/4SM
02:36
Obscured
Fog
50°F / 10°C 48°F / 9°C 94% 30.06 in
(1018 mb)
Calm - 1/4SM
01:54
Obscured
Fog
50°F / 10°C 48°F / 9°C 94% 30.06 in
(1018 mb)
Calm - 1/4SM
01:42
Obscured
Fog
50°F / 10°C 48°F / 9°C 94% 30.06 in
(1018 mb)
SSE 6.9 mph
(SSE 11 kph)
- 1/4SM
01:34
Obscured
Fog
50°F / 10°C 48°F / 9°C 94% 30.04 in
(1017 mb)
N 4.6 mph
(N 7 kph)
- 1/2SM
01:06
Obscured
Fog
48°F / 9°C 46°F / 8°C 94% 30.04 in
(1017 mb)
Calm - 1/4SM
00:57
Obscured
Fog
48°F / 9°C 46°F / 8°C 94% 30.04 in
(1017 mb)
SSE 3.5 mph
(SSE 6 kph)
- 1/2SM
00:54
Obscured
Fog
48°F / 9°C 46°F / 8°C 94% 30.04 in
(1017 mb)
Calm - 1/4SM
00:49
Obscured
Fog
48°F / 9°C 46°F / 8°C 94% 30.04 in
(1017 mb)
Calm - 1/4SM
00:27
Obscured
Fog
48°F / 9°C 48°F / 9°C 100% 30.04 in
(1017 mb)
NNW 4.6 mph
(NNW 7 kph)
- 1/2SM
00:19
Overcast
Fog
50°F / 10°C 48°F / 9°C 94% 30.04 in
(1017 mb)
NNE 3.5 mph
(NNE 6 kph)
- 1/4SM
00:11
Overcast
Fog
50°F / 10°C 48°F / 9°C 94% 30.04 in
(1017 mb)
Calm - 1/2SM
Time Weather Temperature Dewpoint Humidity Pressure Winds Precip Visibility


Weather for websites

WeatherForYou.com, LLC is not responsible for any damages or problems caused by this service. Current weather conditions are obtained from the closest station including government and personal stations which may have varying degrees of accuracy. Weather forecasts are derived from the NOAA NDFD. Like all things, this site belongs to Jesus Christ... He just trusts us to maintain it. If you have any questions or comments email webmaster@weatherforyou.com

Copyright © 2016, WeatherForYou.com LLC. All rights reserved.